| time (UTC) | temp F | wind direction | speed MPH | gust MPH | rain 1hr in | rain 24hr in | rain mn in | humidity % | barometer mb |
| 20260509030958 | 32 | 40 | 0.0 | 12.0 | 0.00 | 0.00 | 0.00 | 69 | 1027.3 |
| 20260509030457 | 33 | 40 | 0.0 | 12.0 | 0.00 | 0.00 | 0.00 | 69 | 1027.5 |
| 20260509025957 | 33 | 40 | 0.0 | 12.0 | 0.00 | 0.00 | 0.00 | 68 | 1027.3 |
| 20260509025456 | 33 | 40 | 0.0 | 12.0 | 0.00 | 0.00 | 0.00 | 68 | 1027.7 |
| 20260509024956 | 33 | 40 | 0.0 | 12.0 | 0.00 | 0.00 | 0.00 | 67 | 1027.6 |
| 20260509024455 | 33 | 40 | 0.0 | 12.0 | 0.00 | 0.00 | 0.00 | 67 | 1027.3 |
| 20260509022922 | 34 | 40 | 0.0 | 12.0 | 0.00 | 0.00 | 0.00 | 66 | 1027.4 |
| 20260509022421 | 34 | 40 | 0.0 | 12.0 | 0.00 | 0.00 | 0.00 | 65 | 1027.3 |
| 20260509021920 | 34 | 40 | 0.0 | 12.0 | 0.00 | 0.00 | 0.00 | 64 | 1027.2 |
| 20260509021419 | 35 | 40 | 0.0 | 12.0 | 0.00 | 0.00 | 0.00 | 64 | 1027.6 |
| 20260509020918 | 35 | 40 | 0.0 | 12.0 | 0.00 | 0.00 | 0.00 | 64 | 1027.4 |
| 20260509020417 | 35 | 40 | 0.0 | 12.0 | 0.00 | 0.00 | 0.00 | 64 | 1027.6 |
| 20260509015917 | 35 | 40 | 0.0 | 12.0 | 0.00 | 0.00 | 0.00 | 63 | 1027.7 |
| 20260509014902 | 36 | 40 | 0.0 | 12.0 | 0.00 | 0.00 | 0.00 | 62 | 1027.9 |
| 20260509014402 | 36 | 40 | 0.0 | 12.0 | 0.00 | 0.00 | 0.00 | 62 | 1027.8 |
| 20260509013901 | 36 | 40 | 0.0 | 12.0 | 0.00 | 0.00 | 0.00 | 61 | 1027.7 |
| 20260509013401 | 36 | 40 | 0.0 | 12.0 | 0.00 | 0.00 | 0.00 | 61 | 1027.8 |
| 20260509012900 | 37 | 40 | 0.0 | 12.0 | 0.00 | 0.00 | 0.00 | 61 | 1027.7 |
| 20260509012400 | 37 | 40 | 0.0 | 12.0 | 0.00 | 0.00 | 0.00 | 60 | 1027.7 |
| 20260509011900 | 37 | 40 | 0.0 | 12.0 | 0.00 | 0.00 | 0.00 | 60 | 1027.7 |
| 20260509011359 | 37 | 40 | 0.0 | 12.0 | 0.00 | 0.00 | 0.00 | 60 | 1027.9 |
| 20260509010859 | 37 | 40 | 0.0 | 12.0 | 0.00 | 0.00 | 0.00 | 60 | 1027.7 |
| 20260509010359 | 38 | 40 | 0.0 | 12.0 | 0.00 | 0.00 | 0.00 | 59 | 1027.7 |
| 20260509005342 | 38 | 40 | 0.0 | 12.0 | 0.00 | 0.00 | 0.00 | 58 | 1027.8 |
| 20260509004842 | 38 | 40 | 0.0 | 12.0 | 0.00 | 0.00 | 0.00 | 57 | 1027.5 |
| 20260509004341 | 39 | 40 | 0.0 | 12.0 | 0.00 | 0.00 | 0.00 | 57 | 1027.9 |
| 20260509002809 | 39 | 40 | 0.0 | 12.0 | 0.00 | 0.00 | 0.00 | 56 | 1027.6 |
| 20260509002308 | 40 | 40 | 0.0 | 12.0 | 0.00 | 0.00 | 0.00 | 56 | 1027.7 |
| 20260509001807 | 40 | 40 | 0.0 | 12.0 | 0.00 | 0.00 | 0.00 | 55 | 1027.7 |
| 20260509001307 | 40 | 40 | 0.0 | 12.0 | 0.00 | 0.00 | 0.00 | 55 | 1027.7 |
| 20260508235736 | 41 | 40 | 0.0 | 12.0 | 0.00 | 0.00 | 0.00 | 53 | 1027.6 |
| 20260508235235 | 41 | 40 | 0.0 | 12.0 | 0.00 | 0.00 | 0.00 | 52 | 1027.4 |
| 20260508234734 | 41 | 40 | 0.0 | 12.0 | 0.00 | 0.00 | 0.00 | 52 | 1027.6 |
| 20260508234233 | 41 | 40 | 0.0 | 12.0 | 0.00 | 0.00 | 0.00 | 51 | 1027.6 |
| 20260508233732 | 42 | 40 | 0.0 | 12.0 | 0.00 | 0.00 | 0.00 | 51 | 1027.5 |
| 20260508233232 | 42 | 40 | 0.0 | 12.0 | 0.00 | 0.00 | 0.00 | 50 | 1027.5 |
| 20260508232732 | 42 | 40 | 0.0 | 12.0 | 0.00 | 0.00 | 0.00 | 49 | 1027.2 |
| 20260508232230 | 43 | 40 | 0.0 | 12.0 | 0.00 | 0.00 | 0.00 | 49 | 1027.6 |
| 20260508231729 | 43 | 40 | 0.0 | 12.0 | 0.00 | 0.00 | 0.00 | 48 | 1027.6 |
| 20260508231229 | 43 | 40 | 0.0 | 12.0 | 0.00 | 0.00 | 0.00 | 48 | 1027.6 |
| 20260508230728 | 44 | 40 | 0.0 | 12.0 | 0.00 | 0.00 | 0.00 | 47 | 1027.4 |
| 20260508230228 | 44 | 40 | 0.0 | 12.0 | 0.00 | 0.00 | 0.00 | 47 | 1027.3 |
| 20260508225728 | 44 | 40 | 0.0 | 12.0 | 0.00 | 0.00 | 0.00 | 46 | 1027.3 |
| 20260508225228 | 45 | 40 | 0.0 | 12.0 | 0.00 | 0.00 | 0.00 | 46 | 1027.4 |
| 20260508224728 | 45 | 40 | 0.0 | 12.0 | 0.00 | 0.00 | 0.00 | 45 | 1027.2 |
| 20260508224228 | 45 | 40 | 0.0 | 12.0 | 0.00 | 0.00 | 0.00 | 44 | 1027.2 |
| 20260508223212 | 46 | 40 | 0.0 | 12.0 | 0.00 | 0.00 | 0.00 | 42 | 1027.4 |
| 20260508222711 | 47 | 40 | 0.0 | 12.0 | 0.00 | 0.00 | 0.00 | 42 | 1027.3 |
| 20260508222211 | 47 | 40 | 0.0 | 12.0 | 0.00 | 0.00 | 0.00 | 42 | 1027.2 |
| 20260508221711 | 48 | 40 | 0.0 | 12.0 | 0.00 | 0.00 | 0.00 | 40 | 1027.1 |
| 20260508221210 | 48 | 40 | 0.0 | 12.0 | 0.00 | 0.00 | 0.00 | 39 | 1027.2 |
| 20260508220709 | 48 | 25 | 0.0 | 12.0 | 0.00 | 0.00 | 0.00 | 39 | 1027.2 |
| 20260508215653 | 49 | 109 | 0.0 | 12.0 | 0.00 | 0.00 | 0.00 | 38 | 1027.2 |
| 20260508215153 | 49 | 56 | 0.0 | 12.0 | 0.00 | 0.00 | 0.00 | 37 | 1027.3 |
| 20260508214652 | 49 | 62 | 1.0 | 12.0 | 0.00 | 0.00 | 0.00 | 37 | 1027.4 |
| 20260508214151 | 49 | 94 | 0.0 | 12.0 | 0.00 | 0.00 | 0.00 | 37 | 1026.9 |
| 20260508213650 | 50 | 55 | 0.0 | 12.0 | 0.00 | 0.00 | 0.00 | 36 | 1027.2 |
| 20260508213150 | 50 | 71 | 0.0 | 12.0 | 0.00 | 0.00 | 0.00 | 36 | 1027.0 |
| 20260508212135 | 50 | 93 | 0.0 | 12.0 | 0.00 | 0.00 | 0.00 | 35 | 1027.0 |
| 20260508211634 | 50 | 65 | 1.0 | 12.0 | 0.00 | 0.00 | 0.00 | 35 | 1026.9 |
| 20260508211133 | 51 | 77 | 1.0 | 12.0 | 0.00 | 0.00 | 0.00 | 34 | 1026.9 |
| 20260508210632 | 51 | 83 | 0.0 | 12.0 | 0.00 | 0.00 | 0.00 | 34 | 1026.8 |
| 20260508210132 | 51 | 88 | 1.0 | 12.0 | 0.00 | 0.00 | 0.00 | 34 | 1026.7 |
| 20260508205632 | 51 | 123 | 2.0 | 12.0 | 0.00 | 0.00 | 0.00 | 34 | 1026.5 |
| 20260508205132 | 51 | 94 | 3.0 | 12.0 | 0.00 | 0.00 | 0.00 | 33 | 1026.9 |
| 20260508204632 | 51 | 57 | 2.0 | 12.0 | 0.00 | 0.00 | 0.00 | 33 | 1026.5 |
| 20260508204132 | 51 | 52 | 1.0 | 12.0 | 0.00 | 0.00 | 0.00 | 33 | 1026.6 |
| 20260508203631 | 52 | 96 | 2.0 | 12.0 | 0.00 | 0.00 | 0.00 | 33 | 1026.8 |
| 20260508203131 | 52 | 59 | 1.0 | 12.0 | 0.00 | 0.00 | 0.00 | 34 | 1026.7 |
| 20260508202631 | 52 | 92 | 2.0 | 12.0 | 0.00 | 0.00 | 0.00 | 35 | 1026.6 |
| 20260508202131 | 52 | 67 | 1.0 | 12.0 | 0.00 | 0.00 | 0.00 | 35 | 1026.7 |
| 20260508200600 | 53 | 29 | 2.0 | 12.0 | 0.00 | 0.00 | 0.00 | 35 | 1026.3 |
| 20260508195027 | 54 | 66 | 1.0 | 12.0 | 0.00 | 0.00 | 0.00 | 35 | 1026.3 |
| 20260508194011 | 54 | 46 | 1.0 | 12.0 | 0.00 | 0.00 | 0.00 | 34 | 1026.0 |
| 20260508193510 | 54 | 40 | 0.0 | 12.0 | 0.00 | 0.00 | 0.00 | 34 | 1025.8 |
| 20260508193009 | 54 | 69 | 1.0 | 12.0 | 0.00 | 0.00 | 0.00 | 34 | 1026.0 |
| 20260508192509 | 55 | 86 | 0.0 | 12.0 | 0.00 | 0.00 | 0.00 | 33 | 1025.7 |
| 20260508192009 | 55 | 40 | 0.0 | 12.0 | 0.00 | 0.00 | 0.00 | 33 | 1025.8 |
| 20260508191509 | 55 | 51 | 0.0 | 12.0 | 0.00 | 0.00 | 0.00 | 33 | 1025.5 |
| 20260508191008 | 55 | 52 | 2.0 | 12.0 | 0.00 | 0.00 | 0.00 | 32 | 1025.7 |
| 20260508190508 | 56 | 39 | 1.0 | 12.0 | 0.00 | 0.00 | 0.00 | 32 | 1025.7 |
| 20260508190008 | 56 | 58 | 0.0 | 12.0 | 0.00 | 0.00 | 0.00 | 32 | 1025.5 |
| 20260508185508 | 56 | 37 | 0.0 | 12.0 | 0.00 | 0.00 | 0.00 | 31 | 1025.4 |
| 20260508185008 | 57 | 41 | 1.0 | 12.0 | 0.00 | 0.00 | 0.00 | 30 | 1025.4 |
| 20260508184507 | 57 | 68 | 0.0 | 12.0 | 0.00 | 0.00 | 0.00 | 32 | 1025.3 |
| 20260508184007 | 58 | 68 | 0.0 | 12.0 | 0.00 | 0.00 | 0.00 | 30 | 1025.2 |
| 20260508183507 | 58 | 68 | 0.0 | 12.0 | 0.00 | 0.00 | 0.00 | 28 | 1025.3 |
| 20260508182452 | 59 | 68 | 0.0 | 12.0 | 0.00 | 0.00 | 0.00 | 29 | 1024.9 |
| 20260508181952 | 59 | 68 | 0.0 | 12.0 | 0.00 | 0.00 | 0.00 | 28 | 1025.1 |
| 20260508181452 | 59 | 67 | 1.0 | 12.0 | 0.00 | 0.00 | 0.00 | 26 | 1025.0 |
| 20260508180951 | 59 | 61 | 0.0 | 12.0 | 0.00 | 0.00 | 0.00 | 27 | 1025.2 |
| 20260508180451 | 59 | 61 | 0.0 | 12.0 | 0.00 | 0.00 | 0.00 | 26 | 1025.0 |
| 20260508175951 | 59 | 60 | 0.0 | 12.0 | 0.00 | 0.00 | 0.00 | 26 | 1024.9 |
| 20260508175450 | 59 | 67 | 1.0 | 12.0 | 0.00 | 0.00 | 0.00 | 25 | 1025.2 |
| 20260508174434 | 60 | 87 | 1.0 | 12.0 | 0.00 | 0.00 | 0.00 | 25 | 1024.9 |
| 20260508173933 | 60 | 98 | 1.0 | 12.0 | 0.00 | 0.00 | 0.00 | 24 | 1024.8 |
| 20260508173432 | 60 | 101 | 1.0 | 12.0 | 0.00 | 0.00 | 0.00 | 24 | 1024.9 |
| 20260508172932 | 60 | 13 | 0.0 | 12.0 | 0.00 | 0.00 | 0.00 | 26 | 1024.6 |
| 20260508172431 | 60 | 120 | 2.0 | 12.0 | 0.00 | 0.00 | 0.00 | 25 | 1024.9 |
| 20260508171931 | 60 | 96 | 2.0 | 12.0 | 0.00 | 0.00 | 0.00 | 24 | 1024.8 |
| 20260508171431 | 61 | 118 | 2.0 | 12.0 | 0.00 | 0.00 | 0.00 | 24 | 1024.6 |
| 20260508170931 | 61 | 118 | 1.0 | 12.0 | 0.00 | 0.00 | 0.00 | 24 | 1024.9 |
| 20260508170431 | 61 | 90 | 3.0 | 12.0 | 0.00 | 0.00 | 0.00 | 24 | 1024.7 |
| 20260508165931 | 61 | 107 | 1.0 | 12.0 | 0.00 | 0.00 | 0.00 | 24 | 1024.4 |
| 20260508165430 | 62 | 116 | 1.0 | 12.0 | 0.00 | 0.00 | 0.00 | 24 | 1024.5 |
| 20260508164930 | 62 | 56 | 1.0 | 12.0 | 0.00 | 0.00 | 0.00 | 24 | 1024.7 |
| 20260508164430 | 62 | 72 | 2.0 | 12.0 | 0.00 | 0.00 | 0.00 | 24 | 1024.5 |
| 20260508163414 | 62 | 124 | 2.0 | 12.0 | 0.00 | 0.00 | 0.00 | 24 | 1024.6 |
| 20260508162912 | 62 | 97 | 2.0 | 12.0 | 0.00 | 0.00 | 0.00 | 23 | 1024.6 |
| 20260508162411 | 62 | 90 | 2.0 | 12.0 | 0.00 | 0.00 | 0.00 | 24 | 1024.6 |
| 20260508161911 | 62 | 60 | 2.0 | 12.0 | 0.00 | 0.00 | 0.00 | 23 | 1024.4 |
| 20260508161410 | 62 | 94 | 3.0 | 12.0 | 0.00 | 0.00 | 0.00 | 24 | 1024.2 |
| 20260508160909 | 62 | 87 | 3.0 | 12.0 | 0.00 | 0.00 | 0.00 | 24 | 1024.4 |
| 20260508160408 | 62 | 117 | 2.0 | 12.0 | 0.00 | 0.00 | 0.00 | 23 | 1024.4 |
| 20260508155907 | 63 | 91 | 3.0 | 12.0 | 0.00 | 0.00 | 0.00 | 23 | 1024.5 |
| 20260508154850 | 63 | 113 | 5.0 | 12.0 | 0.00 | 0.00 | 0.00 | 24 | 1024.7 |
| 20260508154350 | 63 | 93 | 2.0 | 11.0 | 0.00 | 0.00 | 0.00 | 24 | 1024.7 |
| 20260508153849 | 63 | 98 | 2.0 | 11.0 | 0.00 | 0.00 | 0.00 | 23 | 1024.4 |
| 20260508152832 | 64 | 86 | 2.0 | 11.0 | 0.00 | 0.00 | 0.00 | 23 | 1024.7 |
| 20260508152331 | 64 | 98 | 2.0 | 11.0 | 0.00 | 0.00 | 0.00 | 23 | 1024.5 |
| 20260508151314 | 63 | 69 | 2.0 | 11.0 | 0.00 | 0.00 | 0.00 | 23 | 1024.4 |
| 20260508150814 | 64 | 99 | 3.0 | 11.0 | 0.00 | 0.00 | 0.00 | 22 | 1024.6 |
| 20260508150313 | 64 | 29 | 1.0 | 11.0 | 0.00 | 0.00 | 0.00 | 23 | 1024.4 |
| 20260508145812 | 64 | 58 | 1.0 | 11.0 | 0.00 | 0.00 | 0.00 | 24 | 1024.9 |
| 20260508144758 | 64 | 89 | 4.0 | 11.0 | 0.00 | 0.00 | 0.00 | 23 | 1024.8 |
| 20260508144257 | 64 | 39 | 3.0 | 11.0 | 0.00 | 0.00 | 0.00 | 23 | 1024.7 |
| 20260508143756 | 64 | 133 | 1.0 | 11.0 | 0.00 | 0.00 | 0.00 | 23 | 1024.4 |
| 20260508143255 | 64 | 130 | 4.0 | 11.0 | 0.00 | 0.00 | 0.00 | 22 | 1024.7 |
| 20260508142755 | 64 | 128 | 2.0 | 11.0 | 0.00 | 0.00 | 0.00 | 22 | 1024.8 |
| 20260508142256 | 64 | 117 | 4.0 | 11.0 | 0.00 | 0.00 | 0.00 | 23 | 1024.6 |
| 20260508141756 | 64 | 107 | 1.0 | 11.0 | 0.00 | 0.00 | 0.00 | 24 | 1024.7 |
| 20260508141254 | 65 | 110 | 4.0 | 11.0 | 0.00 | 0.00 | 0.00 | 22 | 1024.9 |
| 20260508140753 | 65 | 38 | 2.0 | 11.0 | 0.00 | 0.00 | 0.00 | 24 | 1024.5 |
| 20260508140254 | 65 | 120 | 1.0 | 11.0 | 0.00 | 0.00 | 0.00 | 23 | 1024.8 |
| 20260508135753 | 65 | 49 | 2.0 | 11.0 | 0.00 | 0.00 | 0.00 | 24 | 1024.7 |
| 20260508135252 | 64 | 86 | 1.0 | 11.0 | 0.00 | 0.00 | 0.00 | 24 | 1024.8 |
| 20260508134752 | 64 | 60 | 1.0 | 11.0 | 0.00 | 0.00 | 0.00 | 25 | 1024.8 |
| 20260508134252 | 64 | 85 | 2.0 | 11.0 | 0.00 | 0.00 | 0.00 | 23 | 1024.9 |
| 20260508133235 | 65 | 10 | 2.0 | 11.0 | 0.00 | 0.00 | 0.00 | 24 | 1025.1 |
| 20260508132217 | 64 | 25 | 1.0 | 11.0 | 0.00 | 0.00 | 0.00 | 25 | 1025.1 |
| 20260508131716 | 64 | 16 | 3.0 | 11.0 | 0.00 | 0.00 | 0.00 | 25 | 1024.9 |
| 20260508130702 | 64 | 84 | 2.0 | 11.0 | 0.00 | 0.00 | 0.00 | 25 | 1024.9 |
| 20260508130202 | 64 | 87 | 1.0 | 11.0 | 0.00 | 0.00 | 0.00 | 26 | 1024.9 |
| 20260508125701 | 65 | 58 | 2.0 | 11.0 | 0.00 | 0.00 | 0.00 | 24 | 1025.1 |
| 20260508125201 | 64 | 54 | 1.0 | 11.0 | 0.00 | 0.00 | 0.00 | 24 | 1025.2 |
| 20260508124701 | 64 | 82 | 1.0 | 11.0 | 0.00 | 0.00 | 0.00 | 26 | 1025.2 |
| 20260508124201 | 64 | 98 | 4.0 | 11.0 | 0.00 | 0.00 | 0.00 | 25 | 1025.3 |
| 20260508123701 | 64 | 116 | 2.0 | 11.0 | 0.00 | 0.00 | 0.00 | 23 | 1024.9 |
| 20260508123201 | 64 | 24 | 2.0 | 11.0 | 0.00 | 0.00 | 0.00 | 25 | 1025.1 |
| 20260508122701 | 64 | 7 | 1.0 | 11.0 | 0.00 | 0.00 | 0.00 | 25 | 1025.0 |
| 20260508122201 | 64 | 40 | 3.0 | 11.0 | 0.00 | 0.00 | 0.00 | 23 | 1025.0 |
| 20260508121701 | 64 | 56 | 3.0 | 11.0 | 0.00 | 0.00 | 0.00 | 25 | 1025.2 |
| 20260508120645 | 64 | 35 | 1.0 | 11.0 | 0.00 | 0.00 | 0.00 | 24 | 1025.0 |
| 20260508120144 | 63 | 358 | 2.0 | 11.0 | 0.00 | 0.00 | 0.00 | 24 | 1025.2 |
| 20260508115129 | 63 | 9 | 1.0 | 11.0 | 0.00 | 0.00 | 0.00 | 25 | 1025.3 |
| 20260508114628 | 64 | 72 | 4.0 | 11.0 | 0.00 | 0.00 | 0.00 | 24 | 1025.5 |
| 20260508114127 | 64 | 19 | 2.0 | 11.0 | 0.00 | 0.00 | 0.00 | 24 | 1025.1 |
| 20260508113627 | 64 | 134 | 1.0 | 11.0 | 0.00 | 0.00 | 0.00 | 23 | 1025.5 |
| 20260508113126 | 64 | 112 | 1.0 | 11.0 | 0.00 | 0.00 | 0.00 | 23 | 1025.4 |
| 20260508112626 | 63 | 56 | 3.0 | 11.0 | 0.00 | 0.00 | 0.00 | 24 | 1025.4 |
| 20260508112125 | 63 | 35 | 3.0 | 11.0 | 0.00 | 0.00 | 0.00 | 23 | 1025.5 |
| 20260508111624 | 63 | 57 | 2.0 | 11.0 | 0.00 | 0.00 | 0.00 | 23 | 1025.5 |
| 20260508111123 | 64 | 9 | 2.0 | 11.0 | 0.00 | 0.00 | 0.00 | 24 | 1025.2 |
| 20260508110623 | 64 | 85 | 3.0 | 11.0 | 0.00 | 0.00 | 0.00 | 24 | 1025.2 |
| 20260508110123 | 64 | 83 | 3.0 | 11.0 | 0.00 | 0.00 | 0.00 | 23 | 1025.7 |
| 20260508105108 | 63 | 17 | 1.0 | 11.0 | 0.00 | 0.00 | 0.00 | 24 | 1025.2 |
| 20260508104608 | 63 | 87 | 2.0 | 11.0 | 0.00 | 0.00 | 0.00 | 25 | 1025.5 |
| 20260508104107 | 63 | 117 | 1.0 | 11.0 | 0.00 | 0.00 | 0.00 | 25 | 1025.6 |
| 20260508102536 | 63 | 132 | 4.0 | 11.0 | 0.00 | 0.00 | 0.00 | 25 | 1025.4 |
| 20260508102035 | 63 | 104 | 4.0 | 11.0 | 0.00 | 0.00 | 0.00 | 26 | 1025.4 |
| 20260508101534 | 63 | 78 | 3.0 | 11.0 | 0.00 | 0.00 | 0.00 | 23 | 1025.3 |
| 20260508101033 | 62 | 98 | 2.0 | 11.0 | 0.00 | 0.00 | 0.00 | 25 | 1025.2 |
| 20260508100533 | 62 | 37 | 2.0 | 11.0 | 0.00 | 0.00 | 0.00 | 25 | 1025.3 |
| 20260508100033 | 62 | 108 | 2.0 | 11.0 | 0.00 | 0.00 | 0.00 | 25 | 1025.3 |
| 20260508095533 | 62 | 133 | 4.0 | 11.0 | 0.00 | 0.00 | 0.00 | 25 | 1025.6 |
| 20260508095033 | 62 | 99 | 4.0 | 11.0 | 0.00 | 0.00 | 0.00 | 26 | 1025.3 |
| 20260508094532 | 62 | 19 | 2.0 | 11.0 | 0.00 | 0.00 | 0.00 | 25 | 1025.3 |
| 20260508094031 | 62 | 64 | 2.0 | 11.0 | 0.00 | 0.00 | 0.00 | 26 | 1025.7 |
| 20260508093530 | 61 | 117 | 2.0 | 11.0 | 0.00 | 0.00 | 0.00 | 25 | 1025.7 |
| 20260508093030 | 61 | 90 | 4.0 | 11.0 | 0.00 | 0.00 | 0.00 | 25 | 1025.6 |
| 20260508092529 | 61 | 102 | 2.0 | 11.0 | 0.00 | 0.00 | 0.00 | 26 | 1025.3 |
| 20260508092029 | 61 | 81 | 2.0 | 11.0 | 0.00 | 0.00 | 0.00 | 25 | 1025.5 |
| 20260508091529 | 61 | 92 | 3.0 | 11.0 | 0.00 | 0.00 | 0.00 | 26 | 1025.5 |
| 20260508091028 | 61 | 66 | 2.0 | 11.0 | 0.00 | 0.00 | 0.00 | 26 | 1025.7 |
| 20260508090013 | 60 | 26 | 3.0 | 11.0 | 0.00 | 0.00 | 0.00 | 26 | 1025.5 |
| 20260508085513 | 60 | 43 | 3.0 | 11.0 | 0.00 | 0.00 | 0.00 | 26 | 1025.4 |
| 20260508085012 | 60 | 42 | 2.0 | 11.0 | 0.00 | 0.00 | 0.00 | 27 | 1025.4 |
| 20260508084511 | 60 | 61 | 3.0 | 11.0 | 0.00 | 0.00 | 0.00 | 27 | 1025.4 |
| 20260508084011 | 60 | 30 | 2.0 | 11.0 | 0.00 | 0.00 | 0.00 | 28 | 1025.4 |
| 20260508083511 | 60 | 98 | 2.0 | 11.0 | 0.00 | 0.00 | 0.00 | 26 | 1025.7 |
| 20260508083011 | 60 | 128 | 2.0 | 11.0 | 0.00 | 0.00 | 0.00 | 27 | 1025.5 |
| 20260508081955 | 59 | 105 | 4.0 | 11.0 | 0.00 | 0.00 | 0.00 | 27 | 1025.5 |
| 20260508080939 | 58 | 113 | 3.0 | 11.0 | 0.00 | 0.00 | 0.00 | 28 | 1025.4 |
| 20260508080439 | 58 | 125 | 3.0 | 11.0 | 0.00 | 0.00 | 0.00 | 27 | 1025.6 |
| 20260508075938 | 58 | 107 | 2.0 | 11.0 | 0.00 | 0.00 | 0.00 | 28 | 1025.9 |
| 20260508075437 | 57 | 131 | 1.0 | 11.0 | 0.00 | 0.00 | 0.00 | 30 | 1025.6 |
| 20260508074937 | 57 | 96 | 3.0 | 11.0 | 0.00 | 0.00 | 0.00 | 29 | 1025.5 |
| 20260508074437 | 57 | 107 | 3.0 | 11.0 | 0.00 | 0.00 | 0.00 | 30 | 1025.5 |
| 20260508073936 | 57 | 142 | 2.0 | 11.0 | 0.00 | 0.00 | 0.00 | 33 | 1025.4 |
| 20260508073435 | 56 | 101 | 1.0 | 11.0 | 0.00 | 0.00 | 0.00 | 34 | 1025.4 |
| 20260508072935 | 55 | 112 | 3.0 | 11.0 | 0.00 | 0.00 | 0.00 | 35 | 1025.4 |
| 20260508071919 | 54 | 111 | 5.0 | 11.0 | 0.00 | 0.00 | 0.00 | 37 | 1025.4 |
| 20260508071419 | 55 | 112 | 5.0 | 11.0 | 0.00 | 0.00 | 0.00 | 40 | 1025.6 |
| 20260508070402 | 54 | 66 | 1.0 | 11.0 | 0.00 | 0.00 | 0.00 | 46 | 1025.3 |
| 20260508065901 | 53 | 93 | 2.0 | 11.0 | 0.00 | 0.00 | 0.00 | 49 | 1025.1 |
| 20260508065401 | 53 | 76 | 2.0 | 11.0 | 0.00 | 0.00 | 0.00 | 49 | 1025.4 |
| 20260508064900 | 52 | 107 | 1.0 | 11.0 | 0.00 | 0.00 | 0.00 | 51 | 1025.2 |
| 20260508064359 | 51 | 97 | 2.0 | 11.0 | 0.00 | 0.00 | 0.00 | 50 | 1025.5 |
| 20260508063859 | 51 | 105 | 3.0 | 11.0 | 0.00 | 0.00 | 0.00 | 52 | 1025.3 |
| 20260508063358 | 51 | 85 | 3.0 | 11.0 | 0.00 | 0.00 | 0.00 | 52 | 1025.3 |
| 20260508062858 | 51 | 119 | 4.0 | 11.0 | 0.00 | 0.00 | 0.00 | 51 | 1025.2 |
| 20260508062358 | 51 | 99 | 2.0 | 11.0 | 0.00 | 0.00 | 0.00 | 52 | 1025.2 |
| 20260508061342 | 50 | 31 | 1.0 | 11.0 | 0.00 | 0.00 | 0.00 | 52 | 1024.8 |
| 20260508060842 | 50 | 49 | 1.0 | 11.0 | 0.00 | 0.00 | 0.00 | 54 | 1024.8 |
| 20260508060342 | 49 | 46 | 2.0 | 11.0 | 0.00 | 0.00 | 0.00 | 54 | 1024.8 |
| 20260508055842 | 48 | 40 | 0.0 | 11.0 | 0.00 | 0.00 | 0.00 | 56 | 1025.0 |
| 20260508055342 | 48 | 33 | 1.0 | 11.0 | 0.00 | 0.00 | 0.00 | 56 | 1025.0 |
| 20260508054841 | 47 | 22 | 0.0 | 11.0 | 0.00 | 0.00 | 0.00 | 57 | 1024.7 |
| 20260508054340 | 46 | 78 | 0.0 | 11.0 | 0.00 | 0.00 | 0.00 | 59 | 1025.0 |
| 20260508053840 | 45 | 77 | 1.0 | 11.0 | 0.00 | 0.00 | 0.00 | 59 | 1025.0 |
| 20260508053340 | 44 | 57 | 0.0 | 11.0 | 0.00 | 0.00 | 0.00 | 61 | 1024.7 |
| 20260508052839 | 43 | 65 | 1.0 | 11.0 | 0.00 | 0.00 | 0.00 | 61 | 1024.7 |
| 20260508052339 | 42 | 51 | 0.0 | 11.0 | 0.00 | 0.00 | 0.00 | 63 | 1024.7 |
| 20260508051838 | 41 | 50 | 1.0 | 11.0 | 0.00 | 0.00 | 0.00 | 63 | 1024.9 |
| 20260508051338 | 41 | 78 | 1.0 | 11.0 | 0.00 | 0.00 | 0.00 | 64 | 1024.7 |
| 20260508050323 | 39 | 336 | 0.0 | 11.0 | 0.00 | 0.00 | 0.00 | 66 | 1024.9 |
| 20260508045822 | 39 | 315 | 0.0 | 11.0 | 0.00 | 0.00 | 0.00 | 67 | 1024.6 |
| 20260508045322 | 39 | 315 | 0.0 | 11.0 | 0.00 | 0.00 | 0.00 | 67 | 1024.5 |
| 20260508044821 | 38 | 315 | 0.0 | 11.0 | 0.00 | 0.00 | 0.00 | 69 | 1024.7 |
| 20260508044320 | 37 | 315 | 0.0 | 11.0 | 0.00 | 0.00 | 0.00 | 70 | 1024.7 |
| 20260508043819 | 37 | 315 | 0.0 | 11.0 | 0.00 | 0.00 | 0.00 | 71 | 1024.6 |
| 20260508043318 | 36 | 315 | 0.0 | 11.0 | 0.00 | 0.00 | 0.00 | 72 | 1024.5 |
| 20260508042306 | 36 | 315 | 0.0 | 11.0 | 0.00 | 0.00 | 0.00 | 75 | 1024.4 |
| 20260508041803 | 35 | 315 | 0.0 | 11.0 | 0.00 | 0.00 | 0.00 | 76 | 1024.3 |
| 20260508040233 | 34 | 315 | 0.0 | 11.0 | 0.00 | 0.00 | 0.00 | 78 | 1024.3 |
| 20260508035218 | 34 | 315 | 0.0 | 11.0 | 0.00 | 0.00 | 0.00 | 78 | 1024.0 |
| 20260508034717 | 34 | 315 | 0.0 | 11.0 | 0.00 | 0.00 | 0.00 | 78 | 1024.3 |
| 20260508034217 | 34 | 315 | 0.0 | 11.0 | 0.00 | 0.00 | 0.00 | 78 | 1024.2 |
| 20260508033716 | 34 | 315 | 0.0 | 11.0 | 0.00 | 0.00 | 0.00 | 78 | 1024.4 |
| 20260508033216 | 33 | 315 | 0.0 | 11.0 | 0.00 | 0.00 | 0.00 | 78 | 1024.1 |
| 20260508032716 | 33 | 315 | 0.0 | 11.0 | 0.00 | 0.00 | 0.00 | 78 | 1024.0 |
| 20260508031701 | 34 | 315 | 0.0 | 11.0 | 0.00 | 0.00 | 0.00 | 77 | 1024.4 |